Year,Month,Day,Hour,Minute,Value (Times are PST for temperature in C)
2008,09,17,00,00,12.40
2008,09,17,00,01,12.40
2008,09,17,00,02,12.50
2008,09,17,00,03,12.50
2008,09,17,00,04,12.50
2008,09,17,00,05,12.50
2008,09,17,00,06,12.50
2008,09,17,00,07,12.50
2008,09,17,00,08,12.50
2008,09,17,00,09,12.40
2008,09,17,00,10,12.40
2008,09,17,00,11,12.40
2008,09,17,00,12,12.40
2008,09,17,00,13,12.40
2008,09,17,00,14,12.40
2008,09,17,00,15,12.30
2008,09,17,00,16,12.30
2008,09,17,00,17,12.40
2008,09,17,00,18,12.40
2008,09,17,00,19,12.30
2008,09,17,00,20,12.30
2008,09,17,00,21,12.40
2008,09,17,00,22,12.40
2008,09,17,00,23,12.40
2008,09,17,00,24,12.40
2008,09,17,00,25,12.50
2008,09,17,00,26,12.50
2008,09,17,00,27,12.50
2008,09,17,00,28,12.50
2008,09,17,00,29,12.40
2008,09,17,00,30,12.50
2008,09,17,00,31,12.50
2008,09,17,00,32,12.50
2008,09,17,00,33,12.50
2008,09,17,00,34,12.50
2008,09,17,00,35,12.50
2008,09,17,00,36,12.50
2008,09,17,00,37,12.50
2008,09,17,00,38,12.40
2008,09,17,00,39,12.40
2008,09,17,00,40,12.30
2008,09,17,00,41,12.30
2008,09,17,00,42,12.30
2008,09,17,00,43,12.30
2008,09,17,00,44,12.30
2008,09,17,00,45,12.30
2008,09,17,00,46,12.30
2008,09,17,00,47,12.40
2008,09,17,00,48,12.30
2008,09,17,00,49,12.40
2008,09,17,00,50,12.40
2008,09,17,00,51,12.50
2008,09,17,00,52,12.50
2008,09,17,00,53,12.50
2008,09,17,00,54,12.50
2008,09,17,00,55,12.50
2008,09,17,00,56,12.60
2008,09,17,00,57,12.50
2008,09,17,00,58,12.50
2008,09,17,00,59,12.50
2008,09,17,01,00,12.60
2008,09,17,01,01,12.50
2008,09,17,01,02,12.50
2008,09,17,01,03,12.40
2008,09,17,01,04,12.50
2008,09,17,01,05,12.40
2008,09,17,01,06,12.50
2008,09,17,01,07,12.50
2008,09,17,01,08,12.50
2008,09,17,01,09,12.50
2008,09,17,01,10,12.50
2008,09,17,01,11,12.40
2008,09,17,01,12,12.50
2008,09,17,01,13,12.50
2008,09,17,01,14,12.50
2008,09,17,01,15,12.50
2008,09,17,01,16,12.60
2008,09,17,01,17,12.60
2008,09,17,01,18,12.60
2008,09,17,01,19,12.50
2008,09,17,01,20,12.50
2008,09,17,01,21,12.50
2008,09,17,01,22,12.40
2008,09,17,01,23,12.50
2008,09,17,01,24,12.60
2008,09,17,01,25,12.60
2008,09,17,01,26,12.60
2008,09,17,01,27,12.60
2008,09,17,01,28,12.50
2008,09,17,01,29,12.50
2008,09,17,01,30,12.40
2008,09,17,01,31,12.40
2008,09,17,01,32,12.40
2008,09,17,01,33,12.40
2008,09,17,01,34,12.40
2008,09,17,01,35,12.40
2008,09,17,01,36,12.40
2008,09,17,01,37,12.40
2008,09,17,01,38,12.40
2008,09,17,01,39,12.40
2008,09,17,01,40,12.40
2008,09,17,01,41,12.40
2008,09,17,01,42,12.40
2008,09,17,01,43,12.40
2008,09,17,01,44,12.40
2008,09,17,01,45,12.40
2008,09,17,01,46,12.40
2008,09,17,01,47,12.40
2008,09,17,01,48,12.40
2008,09,17,01,49,12.40
2008,09,17,01,50,12.40
2008,09,17,01,51,12.40
2008,09,17,01,52,12.50
2008,09,17,01,53,12.50
2008,09,17,01,54,12.50
2008,09,17,01,55,12.40
2008,09,17,01,56,12.40
2008,09,17,01,57,12.40
2008,09,17,01,58,12.40
2008,09,17,01,59,12.40
2008,09,17,02,00,12.40
2008,09,17,02,01,12.40
2008,09,17,02,02,12.30
2008,09,17,02,03,12.30
2008,09,17,02,04,12.30
2008,09,17,02,05,12.30
2008,09,17,02,06,12.30
2008,09,17,02,07,12.30
2008,09,17,02,08,12.20
2008,09,17,02,09,12.20
2008,09,17,02,10,12.20
2008,09,17,02,11,12.30
2008,09,17,02,12,12.30
2008,09,17,02,13,12.30
2008,09,17,02,14,12.30
2008,09,17,02,15,12.30
2008,09,17,02,16,12.30
2008,09,17,02,17,12.30
2008,09,17,02,18,12.30
2008,09,17,02,19,12.30
2008,09,17,02,20,12.30
2008,09,17,02,21,12.30
2008,09,17,02,22,12.40
2008,09,17,02,23,12.40
2008,09,17,02,24,12.40
2008,09,17,02,25,12.40
2008,09,17,02,26,12.50
2008,09,17,02,27,12.40
2008,09,17,02,28,12.40
2008,09,17,02,29,12.40
2008,09,17,02,30,12.40
2008,09,17,02,31,12.40
2008,09,17,02,32,12.30
2008,09,17,02,33,12.30
2008,09,17,02,34,12.40
2008,09,17,02,35,12.40
2008,09,17,02,36,12.40
2008,09,17,02,37,12.40
2008,09,17,02,38,12.40
2008,09,17,02,39,12.30
2008,09,17,02,40,12.30
2008,09,17,02,41,12.30
2008,09,17,02,42,12.30
2008,09,17,02,43,12.20
2008,09,17,02,44,12.20
2008,09,17,02,45,12.30
2008,09,17,02,46,12.30
2008,09,17,02,47,12.40
2008,09,17,02,48,12.40
2008,09,17,02,49,12.40
2008,09,17,02,50,12.40
2008,09,17,02,51,12.40
2008,09,17,02,52,12.40
2008,09,17,02,53,12.40
2008,09,17,02,54,12.40
2008,09,17,02,55,12.50
2008,09,17,02,56,12.50
2008,09,17,02,57,12.60
2008,09,17,02,58,12.60
2008,09,17,02,59,12.60
2008,09,17,03,00,12.50
2008,09,17,03,01,12.50
2008,09,17,03,02,12.40
2008,09,17,03,03,12.40
2008,09,17,03,04,12.40
2008,09,17,03,05,12.40
2008,09,17,03,06,12.30
2008,09,17,03,07,12.40
2008,09,17,03,08,12.40
2008,09,17,03,09,12.40
2008,09,17,03,10,12.40
2008,09,17,03,11,12.40
2008,09,17,03,12,12.40
2008,09,17,03,13,12.40
2008,09,17,03,14,12.40
2008,09,17,03,15,12.40
2008,09,17,03,16,12.40
2008,09,17,03,17,12.30
2008,09,17,03,18,12.40
2008,09,17,03,19,12.40
2008,09,17,03,20,12.40
2008,09,17,03,21,12.40
2008,09,17,03,22,12.30
2008,09,17,03,23,12.30
2008,09,17,03,24,12.30
2008,09,17,03,25,12.30
2008,09,17,03,26,12.30
2008,09,17,03,27,12.30
2008,09,17,03,28,12.30
2008,09,17,03,29,12.30
2008,09,17,03,30,12.30
2008,09,17,03,31,12.30
2008,09,17,03,32,12.30
2008,09,17,03,33,12.30
2008,09,17,03,34,12.30
2008,09,17,03,35,12.30
2008,09,17,03,36,12.30
2008,09,17,03,37,12.40
2008,09,17,03,38,12.40
2008,09,17,03,39,12.40
2008,09,17,03,40,12.40
2008,09,17,03,41,12.30
2008,09,17,03,42,12.30
2008,09,17,03,43,12.30
2008,09,17,03,44,12.30
2008,09,17,03,45,12.20
2008,09,17,03,46,12.20
2008,09,17,03,47,12.10
2008,09,17,03,48,12.00
2008,09,17,03,49,12.00
2008,09,17,03,50,12.10
2008,09,17,03,51,12.10
2008,09,17,03,52,12.10
2008,09,17,03,53,12.10
2008,09,17,03,54,12.00
2008,09,17,03,55,12.00
2008,09,17,03,56,12.00
2008,09,17,03,57,12.00
2008,09,17,03,58,12.00
2008,09,17,03,59,12.10
2008,09,17,04,00,12.10
2008,09,17,04,01,12.10
2008,09,17,04,02,12.10
2008,09,17,04,03,12.10
2008,09,17,04,04,12.10
2008,09,17,04,05,12.10
2008,09,17,04,06,12.00
2008,09,17,04,07,12.00
2008,09,17,04,08,12.00
2008,09,17,04,09,11.90
2008,09,17,04,10,11.90
2008,09,17,04,11,11.90
2008,09,17,04,12,11.90
2008,09,17,04,13,11.90
2008,09,17,04,14,11.80
2008,09,17,04,15,11.80
2008,09,17,04,16,11.80
2008,09,17,04,17,11.90
2008,09,17,04,18,11.90
2008,09,17,04,19,11.90
2008,09,17,04,20,11.80
2008,09,17,04,21,11.80
2008,09,17,04,22,11.80
2008,09,17,04,23,11.80
2008,09,17,04,24,11.80
2008,09,17,04,25,11.90
2008,09,17,04,26,11.90
2008,09,17,04,27,11.90
2008,09,17,04,28,11.90
2008,09,17,04,29,11.90
2008,09,17,04,30,11.80
2008,09,17,04,31,11.80
2008,09,17,04,32,11.80
2008,09,17,04,33,11.80
2008,09,17,04,34,11.70
2008,09,17,04,35,11.70
2008,09,17,04,36,11.70
2008,09,17,04,37,11.70
2008,09,17,04,38,11.60
2008,09,17,04,39,11.60
2008,09,17,04,40,11.70
2008,09,17,04,41,11.70
2008,09,17,04,42,11.70
2008,09,17,04,43,11.70
2008,09,17,04,44,11.70
2008,09,17,04,45,11.70
2008,09,17,04,46,11.70
2008,09,17,04,47,11.70
2008,09,17,04,48,11.70
2008,09,17,04,49,11.70
2008,09,17,04,50,11.70
2008,09,17,04,51,11.70
2008,09,17,04,52,11.70
2008,09,17,04,53,11.70
2008,09,17,04,54,11.70
2008,09,17,04,55,11.70
2008,09,17,04,56,11.70
2008,09,17,04,57,11.70
2008,09,17,04,58,11.70
2008,09,17,04,59,11.70
2008,09,17,05,00,11.80
2008,09,17,05,01,11.80
2008,09,17,05,02,11.80
2008,09,17,05,03,11.70
2008,09,17,05,04,11.70
2008,09,17,05,05,11.60
2008,09,17,05,06,11.60
2008,09,17,05,07,11.60
2008,09,17,05,08,11.60
2008,09,17,05,09,11.60
2008,09,17,05,10,11.60
2008,09,17,05,11,11.60
2008,09,17,05,12,11.60
2008,09,17,05,13,11.60
2008,09,17,05,14,11.60
2008,09,17,05,15,11.70
2008,09,17,05,16,11.70
2008,09,17,05,17,11.70
2008,09,17,05,18,11.70
2008,09,17,05,19,11.70
2008,09,17,05,20,11.70
2008,09,17,05,21,11.70
2008,09,17,05,22,11.70
2008,09,17,05,23,11.70
2008,09,17,05,24,11.70
2008,09,17,05,25,11.70
2008,09,17,05,26,11.70
2008,09,17,05,27,11.70
2008,09,17,05,28,11.60
2008,09,17,05,29,11.60
2008,09,17,05,30,11.60
2008,09,17,05,31,11.70
2008,09,17,05,32,11.70
2008,09,17,05,33,11.80
2008,09,17,05,34,11.80
2008,09,17,05,35,11.80
2008,09,17,05,36,11.70
2008,09,17,05,37,11.70
2008,09,17,05,38,11.70
2008,09,17,05,39,11.60
2008,09,17,05,40,11.60
2008,09,17,05,41,11.60
2008,09,17,05,42,11.50
2008,09,17,05,43,11.50
2008,09,17,05,44,11.50
2008,09,17,05,45,11.40
2008,09,17,05,46,11.40
2008,09,17,05,47,11.50
2008,09,17,05,48,11.50
2008,09,17,05,49,11.50
2008,09,17,05,50,11.40
2008,09,17,05,51,11.40
2008,09,17,05,52,11.40
2008,09,17,05,53,11.40
2008,09,17,05,54,11.40
2008,09,17,05,55,11.40
2008,09,17,05,56,11.40
2008,09,17,05,57,11.40
2008,09,17,05,58,11.40
2008,09,17,05,59,11.50
2008,09,17,06,00,11.60
2008,09,17,06,01,11.50
2008,09,17,06,02,11.50
2008,09,17,06,03,11.40
2008,09,17,06,04,11.40
2008,09,17,06,05,11.40
2008,09,17,06,06,11.40
2008,09,17,06,07,11.40
2008,09,17,06,08,11.40
2008,09,17,06,09,11.40
2008,09,17,06,10,11.40
2008,09,17,06,11,11.40
2008,09,17,06,12,11.40
2008,09,17,06,13,11.40
2008,09,17,06,14,11.40
2008,09,17,06,15,11.40
2008,09,17,06,16,11.40
2008,09,17,06,17,11.40
2008,09,17,06,18,11.40
2008,09,17,06,19,11.40
2008,09,17,06,20,11.40
2008,09,17,06,21,11.40
2008,09,17,06,22,11.40
2008,09,17,06,23,11.40
2008,09,17,06,24,11.40
2008,09,17,06,25,11.40
2008,09,17,06,26,11.40
2008,09,17,06,27,11.40
2008,09,17,06,28,11.30
2008,09,17,06,29,11.30
2008,09,17,06,30,11.30
2008,09,17,06,31,11.30
2008,09,17,06,32,11.30
2008,09,17,06,33,11.40
2008,09,17,06,34,11.40
2008,09,17,06,35,11.40
2008,09,17,06,36,11.40
2008,09,17,06,37,11.50
2008,09,17,06,38,11.50
2008,09,17,06,39,11.40
2008,09,17,06,40,11.40
2008,09,17,06,41,11.40
2008,09,17,06,42,11.40
2008,09,17,06,43,11.40
2008,09,17,06,44,11.40
2008,09,17,06,45,11.30
2008,09,17,06,46,11.30
2008,09,17,06,47,11.30
2008,09,17,06,48,11.30
2008,09,17,06,49,11.30
2008,09,17,06,50,11.30
2008,09,17,06,51,11.30
2008,09,17,06,52,11.20
2008,09,17,06,53,11.30
2008,09,17,06,54,11.30
2008,09,17,06,55,11.30
2008,09,17,06,56,11.40
2008,09,17,06,57,11.40
2008,09,17,06,58,11.40
2008,09,17,06,59,11.40
2008,09,17,07,00,11.40
2008,09,17,07,01,11.40
2008,09,17,07,02,11.40
2008,09,17,07,03,11.40
2008,09,17,07,04,11.40
2008,09,17,07,05,11.40
2008,09,17,07,06,11.30
2008,09,17,07,07,11.40
2008,09,17,07,08,11.40
2008,09,17,07,09,11.40
2008,09,17,07,10,11.40
2008,09,17,07,11,11.40
2008,09,17,07,12,11.40
2008,09,17,07,13,11.40
2008,09,17,07,14,11.40
2008,09,17,07,15,11.50
2008,09,17,07,16,11.50
2008,09,17,07,17,11.50
2008,09,17,07,18,11.50
2008,09,17,07,19,11.50
2008,09,17,07,20,11.50
2008,09,17,07,21,11.50
2008,09,17,07,22,11.40
2008,09,17,07,23,11.50
2008,09,17,07,24,11.50
2008,09,17,07,25,11.50
2008,09,17,07,26,11.60
2008,09,17,07,27,11.60
2008,09,17,07,28,11.60
2008,09,17,07,29,11.70
2008,09,17,07,30,11.70
2008,09,17,07,31,11.70
2008,09,17,07,32,11.70
2008,09,17,07,33,11.60
2008,09,17,07,34,11.70
2008,09,17,07,35,11.80
2008,09,17,07,36,11.80
2008,09,17,07,37,11.80
2008,09,17,07,38,11.90
2008,09,17,07,39,11.90
2008,09,17,07,40,12.00
2008,09,17,07,41,12.00
2008,09,17,07,42,12.00
2008,09,17,07,43,12.00
2008,09,17,07,44,12.00
2008,09,17,07,45,12.00
2008,09,17,07,46,12.00
2008,09,17,07,47,12.00
2008,09,17,07,48,12.10
2008,09,17,07,49,12.10
2008,09,17,07,50,12.20
2008,09,17,07,51,12.20
2008,09,17,07,52,12.20
2008,09,17,07,53,12.30
2008,09,17,07,54,12.30
2008,09,17,07,55,12.30
2008,09,17,07,56,12.40
2008,09,17,07,57,12.50
2008,09,17,07,58,12.60
2008,09,17,07,59,12.70
2008,09,17,08,00,12.80
2008,09,17,08,01,12.90
2008,09,17,08,02,13.00
2008,09,17,08,03,13.20
2008,09,17,08,04,13.50
2008,09,17,08,05,13.70
2008,09,17,08,06,13.90
2008,09,17,08,07,14.00
2008,09,17,08,08,14.10
2008,09,17,08,09,14.10
2008,09,17,08,10,14.20
2008,09,17,08,11,14.30
2008,09,17,08,12,14.40
2008,09,17,08,13,14.50
2008,09,17,08,14,14.60
2008,09,17,08,15,14.70
2008,09,17,08,16,14.80
2008,09,17,08,17,15.00
2008,09,17,08,18,15.00
2008,09,17,08,19,15.00
2008,09,17,08,20,15.20
2008,09,17,08,21,15.40
2008,09,17,08,22,15.50
2008,09,17,08,23,15.60
2008,09,17,08,24,15.70
2008,09,17,08,25,15.70
2008,09,17,08,26,15.80
2008,09,17,08,27,15.80
2008,09,17,08,28,15.90
2008,09,17,08,29,15.90
2008,09,17,08,30,15.90
2008,09,17,08,31,15.90
2008,09,17,08,32,16.00
2008,09,17,08,33,16.00
2008,09,17,08,34,16.00
2008,09,17,08,35,16.00
2008,09,17,08,36,16.00
2008,09,17,08,37,16.00
2008,09,17,08,38,16.00
2008,09,17,08,39,16.00
2008,09,17,08,40,16.00
2008,09,17,08,41,16.10
2008,09,17,08,42,16.10
2008,09,17,08,43,16.10
2008,09,17,08,44,16.20
2008,09,17,08,45,16.20
2008,09,17,08,46,16.20
2008,09,17,08,47,16.20
2008,09,17,08,48,16.20
2008,09,17,08,49,16.20
2008,09,17,08,50,16.20
2008,09,17,08,51,16.20
2008,09,17,08,52,16.20
2008,09,17,08,53,16.20
2008,09,17,08,54,16.20
2008,09,17,08,55,16.20
2008,09,17,08,56,16.30
2008,09,17,08,57,16.30
2008,09,17,08,58,16.30
2008,09,17,08,59,16.30
2008,09,17,09,00,16.40
2008,09,17,09,01,16.40
2008,09,17,09,02,16.40
2008,09,17,09,03,16.50
2008,09,17,09,04,16.50
2008,09,17,09,05,16.60
2008,09,17,09,06,16.60
2008,09,17,09,07,16.60
2008,09,17,09,08,16.70
2008,09,17,09,09,16.70
2008,09,17,09,10,16.70
2008,09,17,09,11,16.70
2008,09,17,09,12,16.70
2008,09,17,09,13,16.70
2008,09,17,09,14,16.70
2008,09,17,09,15,16.70
2008,09,17,09,16,16.70
2008,09,17,09,17,16.70
2008,09,17,09,18,16.70
2008,09,17,09,19,16.60
2008,09,17,09,20,16.60
2008,09,17,09,21,16.60
2008,09,17,09,22,16.60
2008,09,17,09,23,16.50
2008,09,17,09,24,16.50
2008,09,17,09,25,16.50
2008,09,17,09,26,16.50
2008,09,17,09,27,16.60
2008,09,17,09,28,16.60
2008,09,17,09,29,16.60
2008,09,17,09,30,16.60
2008,09,17,09,31,16.60
2008,09,17,09,32,16.60
2008,09,17,09,33,16.60
2008,09,17,09,34,16.70
2008,09,17,09,35,16.70
2008,09,17,09,36,16.70
2008,09,17,09,37,16.70
2008,09,17,09,38,16.70
2008,09,17,09,39,16.70
2008,09,17,09,40,16.70
2008,09,17,09,41,16.60
2008,09,17,09,42,16.60
2008,09,17,09,43,16.50
2008,09,17,09,44,16.40
2008,09,17,09,45,16.40
2008,09,17,09,46,16.40
2008,09,17,09,47,16.40
2008,09,17,09,48,16.40
2008,09,17,09,49,16.40
2008,09,17,09,50,16.50
2008,09,17,09,51,16.50
2008,09,17,09,52,16.60
2008,09,17,09,53,16.60
2008,09,17,09,54,16.60
2008,09,17,09,55,16.60
2008,09,17,09,56,16.60
2008,09,17,09,57,16.70
2008,09,17,09,58,16.70
2008,09,17,09,59,16.70
2008,09,17,10,00,16.70
2008,09,17,10,01,16.70
2008,09,17,10,02,16.70
2008,09,17,10,03,16.80
2008,09,17,10,04,16.80
2008,09,17,10,05,16.80
2008,09,17,10,06,16.80
2008,09,17,10,07,16.80
2008,09,17,10,08,16.80
2008,09,17,10,09,16.80
2008,09,17,10,10,16.90
2008,09,17,10,11,16.90
2008,09,17,10,12,16.90
2008,09,17,10,13,17.00
2008,09,17,10,14,17.10
2008,09,17,10,15,17.10
2008,09,17,10,16,17.20
2008,09,17,10,17,17.20
2008,09,17,10,18,17.30
2008,09,17,10,19,17.30
2008,09,17,10,20,17.40
2008,09,17,10,21,17.50
2008,09,17,10,22,17.50
2008,09,17,10,23,17.60
2008,09,17,10,24,17.70
2008,09,17,10,25,17.80
2008,09,17,10,26,17.80
2008,09,17,10,27,17.80
2008,09,17,10,28,17.90
2008,09,17,10,29,17.90
2008,09,17,10,30,17.90
2008,09,17,10,31,17.90
2008,09,17,10,32,17.90
2008,09,17,10,33,17.90
2008,09,17,10,34,17.90
2008,09,17,10,35,17.90
2008,09,17,10,36,17.90
2008,09,17,10,37,18.00
2008,09,17,10,38,18.00
2008,09,17,10,39,18.00
2008,09,17,10,40,18.10
2008,09,17,10,41,18.10
2008,09,17,10,42,18.10
2008,09,17,10,43,18.10
2008,09,17,10,44,18.10
2008,09,17,10,45,18.10
2008,09,17,10,46,18.10
2008,09,17,10,47,18.10
2008,09,17,10,48,18.10
2008,09,17,10,49,18.10
2008,09,17,10,50,18.10
2008,09,17,10,51,18.10
2008,09,17,10,52,18.10
2008,09,17,10,53,18.10
2008,09,17,10,54,18.00
2008,09,17,10,55,18.00
2008,09,17,10,56,18.10
2008,09,17,10,57,18.10
2008,09,17,10,58,18.10
2008,09,17,10,59,18.00
2008,09,17,11,00,18.00
2008,09,17,11,01,18.00
2008,09,17,11,02,18.10
2008,09,17,11,03,18.10
2008,09,17,11,04,18.10
2008,09,17,11,05,18.10
2008,09,17,11,06,18.10
2008,09,17,11,07,18.10
2008,09,17,11,08,18.10
2008,09,17,11,09,18.20
2008,09,17,11,10,18.20
2008,09,17,11,11,18.30
2008,09,17,11,12,18.40
2008,09,17,11,13,18.40
2008,09,17,11,14,18.50
2008,09,17,11,15,18.50
2008,09,17,11,16,18.50
2008,09,17,11,17,18.50
2008,09,17,11,18,18.40
2008,09,17,11,19,18.40
2008,09,17,11,20,18.40
2008,09,17,11,21,18.40
2008,09,17,11,22,18.40
2008,09,17,11,23,18.40
2008,09,17,11,24,18.40
2008,09,17,11,25,18.50
2008,09,17,11,26,18.50
2008,09,17,11,27,18.60
2008,09,17,11,28,18.60
2008,09,17,11,29,18.70
2008,09,17,11,30,18.80
2008,09,17,11,31,18.80
2008,09,17,11,32,18.90
2008,09,17,11,33,19.00
2008,09,17,11,34,19.00
2008,09,17,11,35,19.10
2008,09,17,11,36,19.10
2008,09,17,11,37,19.20
2008,09,17,11,38,19.30
2008,09,17,11,39,19.30
2008,09,17,11,40,19.40
2008,09,17,11,41,19.50
2008,09,17,11,42,19.60
2008,09,17,11,43,19.70
2008,09,17,11,44,19.60
2008,09,17,11,45,19.60
2008,09,17,11,46,19.70
2008,09,17,11,47,19.70
2008,09,17,11,48,19.70
2008,09,17,11,49,19.70
2008,09,17,11,50,19.70
2008,09,17,11,51,19.70
2008,09,17,11,52,19.70
2008,09,17,11,53,19.70
2008,09,17,11,54,19.70
2008,09,17,11,55,19.70
2008,09,17,11,56,19.80
2008,09,17,11,57,19.80
2008,09,17,11,58,19.90
2008,09,17,11,59,19.90
2008,09,17,12,00,19.90
2008,09,17,12,01,19.90
2008,09,17,12,02,20.00
2008,09,17,12,03,20.00
2008,09,17,12,04,20.10
2008,09,17,12,05,20.20
2008,09,17,12,06,20.30
2008,09,17,12,07,20.40
2008,09,17,12,08,20.40
2008,09,17,12,09,20.40
2008,09,17,12,10,20.40
2008,09,17,12,11,20.40
2008,09,17,12,12,20.40
2008,09,17,12,13,20.40
2008,09,17,12,14,20.40
2008,09,17,12,15,20.40
2008,09,17,12,16,20.40
2008,09,17,12,17,20.40
2008,09,17,12,18,20.40
2008,09,17,12,19,20.40
2008,09,17,12,20,20.30
2008,09,17,12,21,20.40
2008,09,17,12,22,20.40
2008,09,17,12,23,20.30
2008,09,17,12,24,20.30
2008,09,17,12,25,20.30
2008,09,17,12,26,20.30
2008,09,17,12,27,20.30
2008,09,17,12,28,20.30
2008,09,17,12,29,20.40
2008,09,17,12,30,20.40
2008,09,17,12,31,20.40
2008,09,17,12,32,20.40
2008,09,17,12,33,20.40
2008,09,17,12,34,20.40
2008,09,17,12,35,20.40
2008,09,17,12,36,20.30
2008,09,17,12,37,20.30
2008,09,17,12,38,20.30
2008,09,17,12,39,20.20
2008,09,17,12,40,20.20
2008,09,17,12,41,20.10
2008,09,17,12,42,20.10
2008,09,17,12,43,20.10
2008,09,17,12,44,20.10
2008,09,17,12,45,20.10
2008,09,17,12,46,20.00
2008,09,17,12,47,20.00
2008,09,17,12,48,20.00
2008,09,17,12,49,20.00
2008,09,17,12,50,20.00
2008,09,17,12,51,20.10
2008,09,17,12,52,20.10
2008,09,17,12,53,20.10
2008,09,17,12,54,20.20
2008,09,17,12,55,20.20
2008,09,17,12,56,20.10
2008,09,17,12,57,20.20
2008,09,17,12,58,20.20
2008,09,17,12,59,20.20
2008,09,17,13,00,20.30
2008,09,17,13,01,20.30
2008,09,17,13,02,20.40
2008,09,17,13,03,20.40
2008,09,17,13,04,20.50
2008,09,17,13,05,20.50
2008,09,17,13,06,20.50
2008,09,17,13,07,20.60
2008,09,17,13,08,20.60
2008,09,17,13,09,20.60
2008,09,17,13,10,20.60
2008,09,17,13,11,20.50
2008,09,17,13,12,20.50
2008,09,17,13,13,20.40
2008,09,17,13,14,20.40
2008,09,17,13,15,20.40
2008,09,17,13,16,20.50
2008,09,17,13,17,20.50
2008,09,17,13,18,20.60
2008,09,17,13,19,20.60
2008,09,17,13,20,20.70
2008,09,17,13,21,20.70
2008,09,17,13,22,20.80
2008,09,17,13,23,20.80
2008,09,17,13,24,20.70
2008,09,17,13,25,20.70
2008,09,17,13,26,20.60
2008,09,17,13,27,20.60
2008,09,17,13,28,20.50
2008,09,17,13,29,20.40
2008,09,17,13,30,20.40
2008,09,17,13,31,20.40
2008,09,17,13,32,20.40
2008,09,17,13,33,20.40
2008,09,17,13,34,20.30
2008,09,17,13,35,20.30
2008,09,17,13,36,20.30
2008,09,17,13,37,20.20
2008,09,17,13,38,20.20
2008,09,17,13,39,20.20
2008,09,17,13,40,20.00
2008,09,17,13,41,19.90
2008,09,17,13,42,19.80
2008,09,17,13,43,19.70
2008,09,17,13,44,19.60
2008,09,17,13,45,19.50
2008,09,17,13,46,19.50
2008,09,17,13,47,19.50
2008,09,17,13,48,19.60
2008,09,17,13,49,19.70
2008,09,17,13,50,19.80
2008,09,17,13,51,20.00
2008,09,17,13,52,20.10
2008,09,17,13,53,20.20
2008,09,17,13,54,20.30
2008,09,17,13,55,20.40
2008,09,17,13,56,20.50
2008,09,17,13,57,20.50
2008,09,17,13,58,20.60
2008,09,17,13,59,20.60
2008,09,17,14,00,20.70
2008,09,17,14,01,20.70
2008,09,17,14,02,20.80
2008,09,17,14,03,20.80
2008,09,17,14,04,20.90
2008,09,17,14,05,20.90
2008,09,17,14,06,20.90
2008,09,17,14,07,20.90
2008,09,17,14,08,20.90
2008,09,17,14,09,20.90
2008,09,17,14,10,20.90
2008,09,17,14,11,20.90
2008,09,17,14,12,20.90
2008,09,17,14,13,21.00
2008,09,17,14,14,21.00
2008,09,17,14,15,20.90
2008,09,17,14,16,20.90
2008,09,17,14,17,20.90
2008,09,17,14,18,20.80
2008,09,17,14,19,20.80
2008,09,17,14,20,20.70
2008,09,17,14,21,20.70
2008,09,17,14,22,20.60
2008,09,17,14,23,20.60
2008,09,17,14,24,20.60
2008,09,17,14,25,20.60
2008,09,17,14,26,20.70
2008,09,17,14,27,20.70
2008,09,17,14,28,20.70
2008,09,17,14,29,20.70
2008,09,17,14,30,20.80
2008,09,17,14,31,20.80
2008,09,17,14,32,20.90
2008,09,17,14,33,21.00
2008,09,17,14,34,21.10
2008,09,17,14,35,21.10
2008,09,17,14,36,21.20
2008,09,17,14,37,21.30
2008,09,17,14,38,21.50
2008,09,17,14,39,21.50
2008,09,17,14,40,21.50
2008,09,17,14,41,21.50
2008,09,17,14,42,21.50
2008,09,17,14,43,21.50
2008,09,17,14,44,21.40
2008,09,17,14,45,21.40
2008,09,17,14,46,21.40
2008,09,17,14,47,21.40
2008,09,17,14,48,21.50
2008,09,17,14,49,21.50
2008,09,17,14,50,21.60
2008,09,17,14,51,21.60
2008,09,17,14,52,21.60
2008,09,17,14,53,21.70
2008,09,17,14,54,21.70
2008,09,17,14,55,21.70
2008,09,17,14,56,21.70
2008,09,17,14,57,21.70
2008,09,17,14,58,21.70
2008,09,17,14,59,21.70
2008,09,17,15,00,21.70
2008,09,17,15,01,21.70
2008,09,17,15,02,21.80
2008,09,17,15,03,21.80
2008,09,17,15,04,21.80
2008,09,17,15,05,21.80
2008,09,17,15,06,21.80
2008,09,17,15,07,21.80
2008,09,17,15,08,21.80
2008,09,17,15,09,21.80
2008,09,17,15,10,21.80
2008,09,17,15,11,21.80
2008,09,17,15,12,21.70
2008,09,17,15,13,21.70
2008,09,17,15,14,21.60
2008,09,17,15,15,21.50
2008,09,17,15,16,21.40
2008,09,17,15,17,21.40
2008,09,17,15,18,21.30
2008,09,17,15,19,21.30
2008,09,17,15,20,21.30
2008,09,17,15,21,21.20
2008,09,17,15,22,21.20
2008,09,17,15,23,21.20
2008,09,17,15,24,21.20
2008,09,17,15,25,21.20
2008,09,17,15,26,21.20
2008,09,17,15,27,21.20
2008,09,17,15,28,21.20
2008,09,17,15,29,21.20
2008,09,17,15,30,21.10
2008,09,17,15,31,21.10
2008,09,17,15,32,21.10
2008,09,17,15,33,21.10
2008,09,17,15,34,21.10
2008,09,17,15,35,21.10
2008,09,17,15,36,21.20
2008,09,17,15,37,21.20
2008,09,17,15,38,21.20
2008,09,17,15,39,21.30
2008,09,17,15,40,21.30
2008,09,17,15,41,21.30
2008,09,17,15,42,21.40
2008,09,17,15,43,21.40
2008,09,17,15,44,21.40
2008,09,17,15,45,21.30
2008,09,17,15,46,21.30
2008,09,17,15,47,21.40
2008,09,17,15,48,21.40
2008,09,17,15,49,21.40
2008,09,17,15,50,21.30
2008,09,17,15,51,21.30
2008,09,17,15,52,21.30
2008,09,17,15,53,21.30
2008,09,17,15,54,21.30
2008,09,17,15,55,21.30
2008,09,17,15,56,21.30
2008,09,17,15,57,21.40
2008,09,17,15,58,21.40
2008,09,17,15,59,21.40
2008,09,17,16,00,21.50
2008,09,17,16,01,21.50
2008,09,17,16,02,21.50
2008,09,17,16,03,21.60
2008,09,17,16,04,21.60
2008,09,17,16,05,21.60
2008,09,17,16,06,21.70
2008,09,17,16,07,21.60
2008,09,17,16,08,21.50
2008,09,17,16,09,21.50
2008,09,17,16,10,21.40
2008,09,17,16,11,21.30
2008,09,17,16,12,21.20
2008,09,17,16,13,21.10
2008,09,17,16,14,21.10
2008,09,17,16,15,21.10
2008,09,17,16,16,21.00
2008,09,17,16,17,20.90
2008,09,17,16,18,20.70
2008,09,17,16,19,20.60
2008,09,17,16,20,20.40
2008,09,17,16,21,20.30
2008,09,17,16,22,20.30
2008,09,17,16,23,20.30
2008,09,17,16,24,20.30
2008,09,17,16,25,20.30
2008,09,17,16,26,20.40
2008,09,17,16,27,20.40
2008,09,17,16,28,20.40
2008,09,17,16,29,20.40
2008,09,17,16,30,20.40
2008,09,17,16,31,20.40
2008,09,17,16,32,20.40
2008,09,17,16,33,20.40
2008,09,17,16,34,20.50
2008,09,17,16,35,20.50
2008,09,17,16,36,20.60
2008,09,17,16,37,20.60
2008,09,17,16,38,20.70
2008,09,17,16,39,20.70
2008,09,17,16,40,20.80
2008,09,17,16,41,20.80
2008,09,17,16,42,20.80
2008,09,17,16,43,20.80
2008,09,17,16,44,20.80
2008,09,17,16,45,20.80
2008,09,17,16,46,20.80
2008,09,17,16,47,20.80
2008,09,17,16,48,20.80
2008,09,17,16,49,20.80
2008,09,17,16,50,20.70
2008,09,17,16,51,20.60
2008,09,17,16,52,20.50
2008,09,17,16,53,20.50
2008,09,17,16,54,20.40
2008,09,17,16,55,20.20
2008,09,17,16,56,20.10
2008,09,17,16,57,20.00
2008,09,17,16,58,19.90
2008,09,17,16,59,19.90
2008,09,17,17,00,19.90
2008,09,17,17,01,19.90
2008,09,17,17,02,19.90
2008,09,17,17,03,19.90
2008,09,17,17,04,19.90
2008,09,17,17,05,19.90
2008,09,17,17,06,20.00
2008,09,17,17,07,20.00
2008,09,17,17,08,20.10
2008,09,17,17,09,20.10
2008,09,17,17,10,20.10
2008,09,17,17,11,20.20
2008,09,17,17,12,20.20
2008,09,17,17,13,20.20
2008,09,17,17,14,20.20
2008,09,17,17,15,20.20
2008,09,17,17,16,20.20
2008,09,17,17,17,20.20
2008,09,17,17,18,20.20
2008,09,17,17,19,20.20